"Pseudo-MPEC" for A10ckQ4

Created 2019 Mar 20 22:18:04 UT using Find_Orb

Click here for an explanation of pseudo-MPECs

 
 Astrometry: 
     A10ckQ4  C2019 03 05(/.@lv0+R;(YhCa8wZUlCqdr.+Astrometryh$nPx`*tJ6Mer`S;T08
     A10ckQ4  C2019 03 05NQ\._$DH(ly'-]UWs(Cliva7B.sP?G(!/D:jH88*_kelOA##FHlwT08
     A10ckQ4  C2019 03 057WQlAua1wSI\8o!^xBb.Il_3*X+:(vL3Bmc)$:7'v)PxhNtPOt8RT08
     A10ckQ4  C2019 03 05?lTEvlCZJ]qR4T\fB1`L:5?l0qe5[i.NCT.sFQSqh$#Y_hUJO(d!T08
     A10ckQ4  C2019 03 05dK[aYC[NhQ=m.?mb[rkc\/dm76hTD-YYn9#)s+LJH?XBy%*ZwuxZK92
     A10ckQ4  C2019 03 05)QVb0%!3.t?ZDASV=R6Gggve!Z'(/4x8eT!vYcBQ\VOXd,upvC]cK92
     A10ckQ4  C2019 03 05=rE0^T1Z3gw/Z@H8*T3*08m^:XlxLcqqs/K*C9L@DTBlFL4'*D?xK92
     A10ckQ4  C2019 03 058].1F3piv/)@KgdRgx3LwR$Y?4.+qBYehl[WMWAVRredacted;_[K92
     A10ckQ4 |C2019 03 062S,62Kt1vNTU:B!uTN-O^_4t$k;dGwg3(8an46HCPDE%RM2'fKo:807
     A10ckQ4 |C2019 03 06E/N2v0K7$9M]W%\]WcI_Ou.CJoyrXJ=ARP=cUTAn\HQ9'3v^wFwu807
     A10ckQ4 |C2019 03 06gM5.Z?KwtZriptt/!b`:_`7?[QCZ-FRtNB].a._\BW%8RySabm_t807
     A10ckQ4  C2019 03 06JLlF/T-q9CnJH`Hb0c$Wdp^=aU58s9de_M?Fy2jG78-9:p#$N5BUW86
     A10ckQ4  C2019 03 06_cT#(m+:*4*QKv8?k.vo]1klq%=nZWh`\1bPoP4V08OU!KJ8]o^TW86
     A10ckQ4  C2019 03 06F%.`;skhS%BciZ8E5cIM?e.mhZ\X.]7pwRiC1-SpFgbEW%H^AJ45W86
     A10ckQ4  C2019 03 06b`:o`8Gn3=nU%92*Jd]tSrf!x72`S8Fmb,_B-.0J?)p+h2U,oP_BW86
     A10ckQ4 KC2019 03 06`s'.5gGXuUclickByXa]NlK:G1cwK+nf%!G:@A$0bKh]'07_qtgc474
     A10ckQ4 KC2019 03 06[*0!ce#'wx+-aWOx8_5Q0/MbS7swS.[cdEO@V=!JMy:e8P94OggO474
     A10ckQ4 KC2019 03 06y3v!C9V9rfq3Qd=mf0[fH];gW-Aob@\^AZRxsJJ:A]E+T9LeNhQw474
     A10ckQ4 KC2019 03 06,p%B/;RPe#j`:5Fo(r4W:?.?fL/te;kj8TD:owjZT4tHJ@=,l+c,474
     A10ckQ4 KC2019 03 07fb*1,BeQ]4('n6B^@cVLUajbf;AX9VxUa/b]NmtbO0erRI8oYKu.Q62
     A10ckQ4 KC2019 03 07?qrZZZ=b'8$VnhAfAEXjXv;S+\o/EhL:DRNYok:aoq/^luYk-IJ*Q62
     A10ckQ4 KC2019 03 07ToJL/H$7[N(v5RmEj9tI+(LU2k2U!_SU.W(=Y,.;4kkJw8IgQCj6Q62
     A10ckQ4 KC2019 03 07Fcqyr%0Tvj;^_OOPyLh9sF]0%Uqb3=%^qQc',9KGx0vM`PT(RGVRQ62
     A10ckQ4 1C2019 03 07G/Fm=W1EcJpdHhere';PAk*$wQZ*6uukv*kR/4cTwg$j_W@[H$_yQ62
     A10ckQ4 1C2019 03 07AnjS\@+k.Hy`i#Y=YSx[W]4g03)=.Q.L*DGiiUkh;[EqnbPH`e%wQ62
     A10ckQ4 1C2019 03 075hBCnLA;p0KaR@vx8k:B9!.rR.?`RP;tr9iyZ^IEcdw*aOBRjdEEQ62
     A10ckQ4  C2019 03 08:ih0c:IRm]kp(T[Z^B/ZNyEsDqjv,'3FpU0YJYfqqWhS1I3pEC*sJ04
     A10ckQ4  C2019 03 08qa=*a3:rGd+3[jI0ULC%q@0jq96l:McUjG=X;5%%@8;w\d-kk*qbJ04
     A10ckQ4  C2019 03 08hiJ+Do,;MHPR'KDBHZa/KR9vnr1!n`y6OIuM(ik*?weDA.FUIU[UJ04
     A10ckQ4 |C2019 03 136)J2s_l^(]B5-FVomfrHGMK2wm/H]8Lc$E?dkWlOyHdaotVb:)d;807
     A10ckQ4 |C2019 03 13UtP'7T'Wrr4?GhgeO\:_xTh=pE-DRD[.r15/f@85/W6wEVL[peZJ807
     A10ckQ4 |C2019 03 13_\mTe]=+y^Dhm!%j5p\+for5pUCGPP_H6u))B@FM@*qbwMAAMVkc807
     A10ckQ4 KC2019 03 13!!sI7HtQH;Ru5\Gw4Ns/UO!?7(RbRgc-:fx=lsHnhD#7kT%?M4tWI47
     A10ckQ4 KC2019 03 13XAMe[9dx`7!.%!R\8Cjq,kOO^w!^-Y%ZD;MbmgynvXJN:L+4h#t3I47
     A10ckQ4  C2019 03 136)jJ(_wj,ejU;H%i=AoU8YOKeSwn#.*aR.ik+3wJWRe1/wS$yb2lW87
     A10ckQ4  C2019 03 13'OcY],$B@VGQ.2W@u.MTa5Js'lp2;)9jFM'-QJMaqXp]6j3x=g`,W87
     A10ckQ4  C2019 03 13pEwcjD6KQBOX)F6S^wK%:l?!]xiA(]kN[/rYyCdAsv%sf21m0\L$W87
     A10ckQ4  C2019 03 13aL,STgbaId]v:p([MlyKFD*fBSNn_[w\Z8+xu\8kRN3l@+Ek,DPrW87
     A10ckQ4 |C2019 03 166HXr(qWZF9rlE6@3\:\,$\Ql?Qa3pcEBEy%=mw/8gOKJCD,)f?SX807
     A10ckQ4 |C2019 03 16.=PSZ)2Qv/`iwi:!28a;M[n+tSCsK+explanation(i[5#dHT;1n807

Station data:
(474) Mount John Observatory, Lake Tekapo  (S43.987388 E170.464960)  New
   Zealand.  Observers A. C. Gilmore, P. M. Kilmartin. Measurer P. M.
   Kilmartin. 1.0-m f/7.7 reflector + CCD.
(807) Cerro Tololo Observatory, La Serena  (S30.169136 W70.805900)  Chile.
   1.5-m Ritchey-Chrétien.
(I47) Pierre Auger Observatory, Malargüe  (S35.495442 W69.449700)  Argentina.
(J04) ESA Optical Ground Station, Tenerife  (N28.300924 W16.511830)  Canary
   Islands (Spain).  Observer D. Abreu. Measurers M. Micheli, D. Koschny, E.
   Schwab, M. Busch, A. Knöfel. 1.0-m f/4.4 reflector + CCD.
(K92) Sutherland-LCO B  (S32.380542 E20.810040)  South Africa.  Observers T.
   Lister, S. Greenstreet, E. Gomez. Measurer S. Greenstreet. 1.0-m f/6.3
   Cassegrain + CCD.
(Q62) iTelescope Observatory, Siding Spring  (S31.273289 E149.064420)
   Australia/NSW. 0.50-m f/6.8 astrograph + CCD + focal reducer, 0.70-m f/6.6
   astrograph + CCD.
(T08) ATLAS-MLO, Mauna Loa  (N19.535772 W155.576400)  US/Hawaii.
(W86) Cerro Tololo-LCO B  (S30.167328 W70.804670)  Chile.  Observer T. Lister.
    1.0-m f/8 Ritchey-Chrétien + CCD.
(W87) Cerro Tololo-LCO C  (S30.167456 W70.804680)  Chile.

Orbital elements:  A10ckQ4
   Perihelion 2023 Nov 17.448118 +/- 40.8 TT = 10:45:17 (JD 2460265.948118)
Epoch 2019 Mar 16.0 TT = JDT 2458558.5                        AutoNEOCP
M 359.98142001 +/- 2.0              (J2000 ecliptic)
n   0.00001088 +/-                  Peri.  281.12906 +/- 4.7
a2016.83710 +/-                     Node   346.78203 +/- 0.7
e   0.9949199 +/- 0.093             Incl.   83.78779 +/- 0.8
P  90574                   H  8.1   G  0.15   U  6.2  
q 10.2457020 +/- 0.625    Q 4023.42851 +/- 35504
From 40 observations 2019 Mar. 5-16; mean residual 0".33
Residuals in arcseconds: 
190305 T08  .06+  1.1-    190306 W86  .10-  .42-    190308 J04  .12+  .05+    
190305 T08  1.3+  .38-    190306 474  .23-  .22+    190313 807  .10+  .24-    
190305 T08  .19-  .85+    190306 474  .39-  .14+    190313 807  .52+  .06-    
190305 T08  .09-  .75+    190306 474  .20-  .15-    190313 807  .13+  .07-    
190305 K92  .09+  .33-    190306 474  .24+  .77+    190313 I47  .21-  .12-    
190305 K92  .01-  .27-    190307 Q62  .53-  .60-    190313 I47  .27+  .02-    
190305 K92  .12-  .20-    190307 Q62  .08-  .18+    190313 W87  .17-  .03+    
190305 K92  .10-  .14-    190307 Q62  .05-  .04-    190313 W87  .10-  .01+    
190306 807  .12+  .27+    190307 Q62  .04+  .04+    190313 W87  .15-  .00     
190306 807  .18-  .15+    190307 Q62  .13+  .00     190313 W87  .08-  .02-    
190306 807  .09-  .24+    190307 Q62  .41-  .32+    190316 807  .10+  .11+    
190306 W86  .15+  .12-    190307 Q62  .59-  .55+    190316 807  .28-  .11+    
190306 W86  .11+  .49-    190308 J04  .00   .02-    
190306 W86  .18-  .15-    190308 J04  .47+  .15+    

Ephemerides (geocentric):
Date (UTC) HH   RA              Dec         delta   r     elong  mag " sig PA
---- -- -- --  -------------   -----------  ------ ------ -----  --- ---- ---
2019 03 20 22  10 08 04.794   -36 53 18.28  12.835 13.557 135.0 19.6 .979  12
2019 03 20 23  10 08 03.880   -36 53 15.39  12.835 13.557 135.0 19.6 .988  12
2019 03 21 00  10 08 02.966   -36 53 12.49  12.835 13.557 135.0 19.6 1.00  12
2019 03 21 01  10 08 02.053   -36 53 09.60  12.835 13.557 135.0 19.6 1.00  12
2019 03 21 02  10 08 01.140   -36 53 06.69  12.835 13.557 134.9 19.6 1.01  12
2019 03 21 03  10 08 00.227   -36 53 03.78  12.835 13.557 134.9 19.6 1.02  12
2019 03 21 04  10 07 59.314   -36 53 00.87  12.835 13.557 134.9 19.6 1.03  12
2019 03 21 05  10 07 58.402   -36 52 57.95  12.835 13.557 134.9 19.6 1.04  12
2019 03 21 06  10 07 57.490   -36 52 55.03  12.835 13.556 134.9 19.6 1.05  12
2019 03 21 07  10 07 56.579   -36 52 52.10  12.835 13.556 134.9 19.6 1.06  12
2019 03 21 08  10 07 55.668   -36 52 49.17  12.835 13.556 134.9 19.6 1.07  12
2019 03 21 09  10 07 54.757   -36 52 46.23  12.835 13.556 134.9 19.6 1.08  12
2019 03 21 10  10 07 53.847   -36 52 43.29  12.835 13.556 134.9 19.6 1.08  12
2019 03 21 11  10 07 52.937   -36 52 40.35  12.835 13.556 134.9 19.6 1.09  12
2019 03 21 12  10 07 52.027   -36 52 37.39  12.834 13.556 134.9 19.6 1.10  12
2019 03 21 13  10 07 51.117   -36 52 34.44  12.834 13.555 134.9 19.6 1.11  12
2019 03 21 14  10 07 50.208   -36 52 31.48  12.834 13.555 134.9 19.6 1.12  12
2019 03 21 15  10 07 49.299   -36 52 28.51  12.834 13.555 134.8 19.6 1.13  12
2019 03 21 16  10 07 48.391   -36 52 25.54  12.834 13.555 134.8 19.6 1.14  12
2019 03 21 17  10 07 47.483   -36 52 22.56  12.834 13.555 134.8 19.6 1.15  12
2019 03 21 18  10 07 46.575   -36 52 19.58  12.834 13.555 134.8 19.6 1.16  12
2019 03 21 19  10 07 45.668   -36 52 16.60  12.834 13.555 134.8 19.6 1.17  12
2019 03 21 20  10 07 44.761   -36 52 13.61  12.834 13.554 134.8 19.6 1.18  12
2019 03 21 21  10 07 43.854   -36 52 10.61  12.834 13.554 134.8 19.6 1.19  12
2019 03 21 22  10 07 42.948   -36 52 07.62  12.834 13.554 134.8 19.6 1.19  12
2019 03 21 23  10 07 42.042   -36 52 04.61  12.834 13.554 134.8 19.6 1.20  13
2019 03 22 00  10 07 41.136   -36 52 01.60  12.834 13.554 134.8 19.6 1.21  13
2019 03 22 01  10 07 40.231   -36 51 58.59  12.834 13.554 134.8 19.6 1.22  13
2019 03 22 02  10 07 39.326   -36 51 55.57  12.834 13.554 134.8 19.6 1.23  13
2019 03 22 03  10 07 38.421   -36 51 52.55  12.834 13.554 134.7 19.6 1.24  13
2019 03 22 04  10 07 37.517   -36 51 49.52  12.834 13.553 134.7 19.6 1.25  13
2019 03 22 05  10 07 36.613   -36 51 46.49  12.834 13.553 134.7 19.6 1.26  13
2019 03 22 06  10 07 35.709   -36 51 43.45  12.834 13.553 134.7 19.6 1.27  13
2019 03 22 07  10 07 34.806   -36 51 40.41  12.834 13.553 134.7 19.6 1.28  13
2019 03 22 08  10 07 33.903   -36 51 37.36  12.834 13.553 134.7 19.6 1.29  13
2019 03 22 09  10 07 33.000   -36 51 34.31  12.833 13.553 134.7 19.6 1.30  13
2019 03 22 10  10 07 32.098   -36 51 31.25  12.833 13.553 134.7 19.6 1.31  13
2019 03 22 11  10 07 31.196   -36 51 28.19  12.833 13.552 134.7 19.6 1.32  13
2019 03 22 12  10 07 30.295   -36 51 25.12  12.833 13.552 134.7 19.6 1.33  13
2019 03 22 13  10 07 29.394   -36 51 22.05  12.833 13.552 134.7 19.6 1.34  13
2019 03 22 14  10 07 28.493   -36 51 18.98  12.833 13.552 134.7 19.6 1.35  13
2019 03 22 15  10 07 27.592   -36 51 15.90  12.833 13.552 134.6 19.6 1.36  13
2019 03 22 16  10 07 26.692   -36 51 12.81  12.833 13.552 134.6 19.6 1.37  13
2019 03 22 17  10 07 25.792   -36 51 09.72  12.833 13.552 134.6 19.6 1.38  13
2019 03 22 18  10 07 24.893   -36 51 06.63  12.833 13.551 134.6 19.6 1.39  13
2019 03 22 19  10 07 23.994   -36 51 03.53  12.833 13.551 134.6 19.6 1.40  13
2019 03 22 20  10 07 23.095   -36 51 00.43  12.833 13.551 134.6 19.6 1.41  13
2019 03 22 21  10 07 22.197   -36 50 57.32  12.833 13.551 134.6 19.6 1.42  13